Погода в Летошниках

Россия / Брянская область     53°27′18″N   33°38′44″E
темп.,
°C
ветер,
м/с
пор.,
м/с
влажн.,
%
обл.,
%
осадки,
мм/ч
давл.,
гПа
погр.,
м
19 января, ср
ср1900:00−10ссз5139179 0.0 1020452
03:00−13сз4119658 0.0 1022218
06:00−16сз2698100 0.0 102291
09:00−13зсз2596100 0.0 102298
12:00−8зюз248971 0.0 1021157
15:00−5ююз259382 0.0 1019277
18:00−6ююз499694 0.1 1018256
21:00−6юз4109699 0.1 1016289
20 января, чт
чт2000:00−5ююз41096100 0.1 1014310
03:00−5ююз41096100 0.1 1013272
06:00−3ююз4119699 0.1 1010448
09:00−3ююз51295100 0.1 1008588
12:00−2ю61394100 0.1 1007756
15:00−2ю71393100 0.2 1004771
18:00−2ююз61293100 0.1 1002866
21:00−3ююз61396100 1.0 1002726
21 января, пт
пт2100:00−2юз51185100 0.5 1002703
03:00−6ю31095100 0.6 1003212
06:00−5ю41196100 0.3 1001494
09:00−4ю3896100 1.2 1001399
12:00−4ююз489196 0.1 1001649
15:00−4ю41095100 0.3 1000715
18:00−4ю51195100 0.7 999760
21:00−5ююв51194100 1.1 999511
22 января, сб
сб2200:00−4ю3895100 0.5 999372
03:00−6ююз2598100 0.7 1001103
06:00−6ю2597100 0.1 1002147
09:00−6ю2597100 0.4 1004153
12:00−3юз139479 0.3 1007272
15:00−4юз139380 0.3 1009182
18:00−8юз009862 0.0 101210
21:00−11всв1110096 0.1 101515
23 января, вс
вс2300:00−10св239897 0.1 101755
03:00−13всв119987 0.1 102010
06:00−12в249788 0.1 102275
09:00−16в1110083 0.1 102517
12:00−9в129692 0.0 1027120
15:00−7св239597 0.1 1028200
18:00−14св2210088 0.0 103110
21:00−17св11100100 0.1 10339